This is the latest recevied weather packets stored in our database for station/object IT9FBN-3. If no packets are shown the sender has not sent any weather packets the latest 10 day(s).
| Time | Temp. | Humidity | Pressure | Rain* | Wind** | Luminosity | Snow |
|---|---|---|---|---|---|---|---|
| 1778169903 | 20.56° C | 63% | 1010.7 hPa | 0 mm | - | - | - |
| 1778169603 | 21.11° C | 62% | 1010.7 hPa | 0 mm | - | - | - |
| 1778169303 | 21.11° C | 63% | 1010.7 hPa | 0 mm | - | - | - |
| 1778169003 | 21.11° C | 60% | 1010.5 hPa | 0 mm | - | - | - |
| 1778168703 | 21.11° C | 60% | 1010.5 hPa | 0 mm | - | - | - |
| 1778168403 | 21.11° C | 51% | 1010.5 hPa | 0 mm | - | - | - |
| 1778168103 | 21.67° C | 52% | 1010.4 hPa | 0 mm | - | - | - |
| 1778167803 | 21.67° C | 57% | 1010.4 hPa | 0 mm | - | - | - |
| 1778167503 | 21.67° C | 59% | 1010.2 hPa | 0 mm | - | - | - |
| 1778167203 | 21.67° C | 59% | 1010.2 hPa | 0 mm | - | - | - |
| 1778166903 | 21.11° C | 59% | 1010.1 hPa | 0 mm | - | - | - |
| 1778166603 | 21.67° C | 58% | 1009.9 hPa | 0 mm | - | - | - |
| 1778166303 | 21.11° C | 58% | 1009.9 hPa | 0 mm | - | - | - |
| 1778166003 | 21.11° C | 61% | 1010 hPa | 0 mm | - | - | - |
| 1778165703 | 21.67° C | 61% | 1010.2 hPa | 0 mm | - | - | - |
| 1778165403 | 21.67° C | 60% | 1010.2 hPa | 0 mm | - | - | - |
| 1778165103 | 21.67° C | 59% | 1010.5 hPa | 0 mm | - | - | - |
| 1778164803 | 22.22° C | 52% | 1010.5 hPa | 0 mm | - | - | - |
| 1778164503 | 22.22° C | 51% | 1010.5 hPa | 0 mm | - | - | - |
| 1778164203 | 22.22° C | 53% | 1010.4 hPa | 0 mm | - | - | - |
| 1778163903 | 22.22° C | 52% | 1010.6 hPa | 0 mm | - | - | - |
| 1778163603 | 22.22° C | 52% | 1010.6 hPa | 0 mm | - | - | - |
| 1778163303 | 22.22° C | 51% | 1010.5 hPa | 0 mm | - | - | - |
| 1778163003 | 22.22° C | 51% | 1010.5 hPa | 0 mm | - | - | - |
| 1778162703 | 22.22° C | 51% | 1010.5 hPa | 0 mm | - | - | - |
* Rain latest hour (hover to see other rain measurements)
** Current wind speed in m/s (hover to see current wind gust speed)